Location: Valley Falls
(35.0169°N, 81.9753°W)
Time: 21:17:54
(UTC+00:00)

X-37B - Pass Details

Date: 07 December 2022
Orbit: 277 x 277 km, 45.0° (Epoch: 01 November)

Event Time Altitude Azimuth Distance (km) Brightness Sun altitude
Rises 23:28:06 0° 256° (WSW) 1,905 6.1 -14.4°
Reaches altitude 10° 23:30:06 10° 267° (W) 1,095 4.1 -14.8°
Maximum altitude 23:32:21 32° 334° (NNW) 507 1.2 -15.3°
Enters shadow 23:32:48 29° 359° (N) 544 1.1 -15.4°
